Weather History for KAXN - April, 2013

Change the Weather History Date:

Monday, April 8, 2013

  Actual Average Record
Temperature  
Mean Temperature 36 °F -  
Max Temperature 39 °F 48 °F 83 °F (1988)
Min Temperature 32 °F 30 °F 3 °F (1997)
Degree Days  
Heating Degree Days 29    
Moisture  
Dew Point 33 °F    
Average Humidity 90    
Maximum Humidity 100    
Minimum Humidity 75    
Precipitation  
Precipitation 0.02 in - - ()
Sea Level Pressure  
Sea Level Pressure 29.85 in    
Wind  
Wind Speed 10 mph (NNE)    
Max Wind Speed 16 mph    
Max Gust Speed 22 mph    
Visibility 5 miles    
Events Fog    
Averages and records for this station are not official NWS values.
T = Trace of Precipitation, MM = Missing Value Source: NWS Daily Summary

Daily Weather History Graph

Daily Weather History Graph

Search for Another Location

Airport or City:

Trip Planner

Search our weather history database for the weather conditions in past years. The results will help you decide how hot, cold, wet, or windy it might be!

Date:

Astronomy

Apr. 08, 2013 Rise Set
Actual Time 6:47 AM CDT 7:59 PM CDT
Civil Twilight 6:17 AM CDT 8:30 PM CDT
Nautical Twilight 5:40 AM CDT 9:07 PM CDT
Astronomical Twilight 5:01 AM CDT 9:46 PM CDT
Moon 5:43 AM CDT (4/8) 6:32 PM CDT (4/8)
Length of Visible Light 14h 13m
Length of Day
13h 11m
Waning Crescent, 3% of the Moon is Illuminated
Apr 8
Waning Crescent
Apr 10
New
Apr 18
First Quarter
Apr 25
Full
May 2
Last Quarter

Hourly Weather History & Observations

Time (CDT) Temp. Windchill Dew Point Humidity Pressure Visibility Wind Dir Wind Speed Gust Speed Precip Events Conditions
12:07 AM 35.6 °F 28.0 °F 33.8 °F 93% 29.74 in 2.0 mi NE 10.4 mph - 0.01 in   Overcast
12:34 AM 35.6 °F 29.2 °F 33.8 °F 93% 29.74 in 2.5 mi NE 8.1 mph - 0.01 in   Overcast
12:45 AM 35.6 °F 29.2 °F 33.8 °F 93% 29.74 in 3.0 mi NE 8.1 mph - 0.01 in   Overcast
12:53 AM 35.1 °F 28.6 °F 34.0 °F 96% 29.79 in 3.0 mi NNE 8.1 mph - 0.01 in   Overcast
1:06 AM 35.6 °F 29.2 °F 33.8 °F 93% 29.74 in 2.5 mi NE 8.1 mph - N/A   Overcast
1:53 AM 35.1 °F 28.6 °F 33.1 °F 92% 29.79 in 1.8 mi NE 8.1 mph - N/A   Overcast
2:09 AM 35.6 °F 28.6 °F 33.8 °F 93% 29.74 in 2.0 mi ENE 9.2 mph - 0.01 in   Overcast
2:34 AM 35.6 °F 28.6 °F 33.8 °F 93% 29.73 in 3.0 mi ENE 9.2 mph - 0.01 in   Overcast
2:53 AM 35.1 °F 29.3 °F 33.1 °F 92% 29.77 in 4.0 mi ENE 6.9 mph - 0.01 in   Overcast
3:12 AM 35.6 °F 27.5 °F 33.8 °F 93% 29.72 in 5.0 mi East 11.5 mph - N/A   Overcast
3:53 AM 35.1 °F 28.6 °F 34.0 °F 96% 29.77 in 6.0 mi ENE 8.1 mph - N/A   Overcast
4:08 AM 35.6 °F 29.2 °F 35.6 °F 100% 29.72 in 6.0 mi ENE 8.1 mph - N/A   Overcast
4:53 AM 35.1 °F 29.3 °F 35.1 °F 100% 29.76 in 5.0 mi ENE 6.9 mph - N/A   Overcast
5:53 AM 35.1 °F 29.3 °F 34.0 °F 96% 29.77 in 4.0 mi NE 6.9 mph - N/A   Overcast
6:15 AM 35.6 °F 29.9 °F 33.8 °F 93% 29.73 in 2.0 mi NE 6.9 mph - N/A   Overcast
6:35 AM 33.8 °F 27.0 °F 33.8 °F 100% 29.73 in 1.8 mi NE 8.1 mph - N/A   Overcast
6:53 AM 34.0 °F 26.6 °F 33.1 °F 96% 29.77 in 1.2 mi NE 9.2 mph - N/A   Overcast
7:15 AM 33.8 °F 26.4 °F 33.8 °F 100% 29.74 in 0.8 mi NE 9.2 mph - N/A   Overcast
7:27 AM 33.8 °F 27.0 °F 33.8 °F 100% 29.75 in 0.5 mi NE 8.1 mph - N/A Fog Fog
7:45 AM 33.8 °F 27.7 °F 33.8 °F 100% 29.75 in 0.8 mi NE 6.9 mph - N/A   Overcast
7:53 AM 34.0 °F 28.8 °F 33.1 °F 96% 29.81 in 0.8 mi NE 5.8 mph - N/A   Overcast
8:12 AM 33.8 °F 29.6 °F 33.8 °F 100% 29.76 in 1.0 mi NE 4.6 mph - N/A   Overcast
8:53 AM 35.1 °F 29.3 °F 34.0 °F 96% 29.82 in 1.0 mi NNE 6.9 mph - N/A   Overcast
9:00 AM 33.8 °F 28.6 °F 33.8 °F 100% 29.77 in 0.5 mi NNE 5.8 mph - N/A Fog Fog
9:14 AM 35.6 °F 29.2 °F 33.8 °F 93% 29.78 in 0.8 mi North 8.1 mph - N/A   Overcast
9:49 AM 35.6 °F 28.0 °F 33.8 °F 93% 29.77 in 1.0 mi NNE 10.4 mph - N/A   Overcast
9:53 AM 35.1 °F 27.4 °F 34.0 °F 96% 29.82 in 1.0 mi NNE 10.4 mph - N/A   Overcast
10:01 AM 35.6 °F 27.1 °F 33.8 °F 93% 29.77 in 0.8 mi NNE 12.7 mph - N/A   Overcast
10:19 AM 35.6 °F 27.5 °F 33.8 °F 93% 29.78 in 1.5 mi NNE 11.5 mph - N/A   Overcast
10:25 AM 35.6 °F 26.6 °F 33.8 °F 93% 29.79 in 3.0 mi NNE 13.8 mph - N/A   Overcast
10:53 AM 35.1 °F 26.4 °F 33.1 °F 92% 29.84 in 4.0 mi NNE 12.7 mph - N/A   Overcast
11:53 AM 36.0 °F 27.1 °F 33.1 °F 89% 29.86 in 7.0 mi NNE 13.8 mph - N/A   Overcast
12:39 PM 35.6 °F 26.2 °F 33.8 °F 93% 29.83 in 6.0 mi NNE 15.0 mph - N/A   Overcast
12:53 PM 37.0 °F 28.9 °F 34.0 °F 89% 29.88 in 7.0 mi NE 12.7 mph - N/A   Overcast
1:50 PM 37.4 °F 30.3 °F 33.8 °F 87% 29.85 in 10.0 mi North 10.4 mph - N/A   Overcast
1:53 PM 37.9 °F 30.9 °F 34.0 °F 86% 29.89 in 10.0 mi NNE 10.4 mph - N/A   Overcast
2:22 PM 39.2 °F 31.6 °F 33.8 °F 81% 29.85 in 10.0 mi NNE 12.7 mph - N/A   Overcast
2:53 PM 39.0 °F 31.0 °F 34.0 °F 82% 29.90 in 10.0 mi North 13.8 mph - N/A   Overcast
3:53 PM 37.9 °F 30.9 °F 33.1 °F 83% 29.93 in 10.0 mi North 10.4 mph - N/A   Overcast
4:53 PM 37.9 °F 30.5 °F 32.0 °F 79% 29.96 in 10.0 mi NNE 11.5 mph - N/A   Overcast
5:12 PM 37.4 °F 29.3 °F 32.0 °F 81% 29.93 in 10.0 mi North 12.7 mph - N/A   Overcast
5:27 PM 37.4 °F 28.2 °F 32.0 °F 81% 29.94 in 10.0 mi North 16.1 mph - N/A   Overcast
5:53 PM 37.0 °F 28.1 °F 32.0 °F 82% 30.00 in 10.0 mi North 15.0 mph 20.7 mph N/A   Overcast
6:03 PM 37.4 °F 28.5 °F 30.2 °F 75% 29.95 in 10.0 mi NNE 15.0 mph - N/A   Overcast
6:12 PM 37.4 °F 28.9 °F 30.2 °F 75% 29.95 in 10.0 mi NNE 13.8 mph - N/A   Overcast
6:53 PM 37.0 °F 28.9 °F 30.9 °F 79% 30.03 in 10.0 mi NNE 12.7 mph 21.9 mph N/A   Overcast
7:20 PM 35.6 °F 27.5 °F 30.2 °F 81% 29.99 in 10.0 mi NNE 11.5 mph - N/A   Overcast
7:44 PM 35.6 °F 28.0 °F 30.2 °F 81% 30.00 in 10.0 mi NNE 10.4 mph - N/A   Overcast
7:53 PM 36.0 °F 27.5 °F 30.0 °F 79% 30.06 in 10.0 mi NNE 12.7 mph - N/A   Overcast
8:12 PM 35.6 °F 28.0 °F 30.2 °F 81% 30.01 in 10.0 mi NNE 10.4 mph - N/A   Overcast
8:53 PM 35.1 °F 26.4 °F 30.0 °F 82% 30.09 in 10.0 mi NNE 12.7 mph - N/A   Overcast
9:53 PM 34.0 °F 25.5 °F 28.9 °F 82% 30.10 in 10.0 mi NNE 11.5 mph - N/A   Overcast
10:53 PM 34.0 °F 26.0 °F 28.0 °F 79% 30.14 in 10.0 mi North 10.4 mph - N/A   Overcast
11:53 PM 32.0 °F 21.2 °F 25.0 °F 75% 30.14 in 10.0 mi North 16.1 mph - N/A   Overcast